This demonstration page uses our WeatherBlox Daily Observations layout. Learn more.

Left ArrowRight Arrow

38.88101, -77.10428

Hourly Observations for July 15, 2016

Temp ( °F °C ) Dew Point ( °F °C ) Humidity (%) Winds ( mph kmh ) Pressure ( in mb ) Visibility ( mi km ) Precip ( " mm )
12:52 am 00:52 Mostly Cloudy 82 27.8 71 21.7 69 69 SW 8 13 29.9 1012 10 16.0934 0 0
1:52 am 01:52 Mostly Cloudy 81 27.2 69 20.6 67 67 SW 6 9 29.89 1012 10 16.0934 0 0
2:52 am 02:52 Mostly Clear 79 26.1 69 20.6 72 72 SSW 6 9 29.89 1012 10 16.0934 0 0
3:52 am 03:52 Mostly Clear 78 25.6 68 20 71 71 SSW 5 7 29.89 1012 10 16.0934 0 0
4:52 am 04:52 Mostly Clear 78 25.6 69 20.6 74 74 S 3 6 29.9 1012 10 16.0934 0 0
5:52 am 05:52 Partly Cloudy 77 25 69 20.6 77 77 SSW 7 11 29.91 1013 10 16.0934 0 0
6:52 am 06:52 Mostly Cloudy 80 26.7 69 20.6 69 69 Calm 29.92 1013 10 16.0934 0 0
7:52 am 07:52 Mostly Cloudy 81 27.2 70 21.1 69 69 N 6 9 29.94 1014 10 16.0934 0 0
8:52 am 08:52 Mostly Cloudy 86 30 69 20.6 57 57 N 6 9 29.96 1015 10 16.0934 0 0
9:52 am 09:52 Mostly Cloudy 86 30 67 19.4 53 53 NW 10 17 29.96 1015 10 16.0934 0 0
10:52 am 10:52 Mostly Cloudy 86 30 68 20 55 55 NNW 10 17 29.97 1015 10 16.0934 0 0
11:52 am 11:52 Mostly Cloudy 86 30 68 20 55 55 NW 13 20 29.97 1015 10 16.0934 0 0
12:52 pm 12:52 Partly Cloudy 90 32.2 68 20 48 48 NNW 8 13 29.96 1015 10 16.0934 0 0
1:52 pm 13:52 Partly Cloudy 93 33.9 64 17.8 38 38 N 15 24 29.96 1015 10 16.0934 0 0
2:52 pm 14:52 Partly Cloudy 93 33.9 66 18.9 41 41 NW 12 19 29.96 1014 10 16.0934 0 0
3:52 pm 15:52 Mostly Cloudy 89 31.7 64 17.8 43 43 W 13 20 29.95 1014 10 16.0934 0 0
4:52 pm 16:52 Mostly Cloudy 92 33.3 62 16.7 37 37 W 12 19 29.93 1014 10 16.0934 0 0
5:52 pm 17:52 Mostly Cloudy 91 32.8 64 17.8 41 41 W 12 19 29.91 1013 10 16.0934 0 0
6:52 pm 18:52 Mostly Cloudy 90 32.2 64 17.8 42 42 WNW 7 11 29.91 1013 10 16.0934 0 0
7:52 pm 19:52 Mostly Cloudy 88 31.1 65 18.3 46 46 WSW 9 15 29.93 1014 10 16.0934 0 0
8:52 pm 20:52 Mostly Cloudy 85 29.4 66 18.9 53 53 WSW 9 15 29.95 1014 10 16.0934 0 0
9:52 pm 21:52 Partly Cloudy 84 28.9 66 18.9 55 55 SW 7 11 29.98 1015 10 16.0934 0 0
10:52 pm 22:52 Partly Cloudy 82 27.8 67 19.4 60 60 SSW 7 11 29.99 1016 10 16.0934 0 0
11:52 pm 23:52 Mostly Cloudy 80 26.7 67 19.4 64 64 SW 5 7 30 1016 10 16.0934 0 0

Powered by AerisWeather